Wind_Speed
36 37 39 39 41 41 43 41 40 38 37 38 34 35 33 31 32 34 35 33 35 33 30 26 26 25 25
38 40 40 39 41 42 41 40 40 32 36 37 40 36 32 30 30 30 26 29 28 28 27 25 26 25 24
41 40 41 41 43 43 42 43 37 42 42 42 35 38 34 34 31 23 26 22 18 23 27 25 24 21 25
39 42 41 40 40 44 46 39 45 42 40 38 42 36 28 26 21 18 20 22 25 22 15 15 22 19 18
39 41 41 41 38 38 41 43 44 39 43 46 40 33 25 18 12 14 16 14 10 7 16 14 25 28 19
36 37 38 36 37 36 41 41 45 45 48 47 40 32 26 19 15 10 2 10 6 1 10 15 17 18 18
33 32 36 34 38 40 40 41 39 50 40 42 36 30 23 11 4 3 6 3 5 14 15 15 13 7 8
29 31 33 38 33 34 39 41 44 41 31 35 31 18 9 12 13 10 5 5 5 9 9 11 16 16 14
28 31 33 32 31 32 34 35 40 35 28 22 19 11 5 7 6 9 11 11 16 17 19 17 16 15 13
33 33 33 30 28 23 26 30 29 29 20 22 22 12 5 5 7 8 14 11 11 11 13 13 11 10 12
36 35 33 30 32 23 23 23 26 25 25 22 22 15 8 3 2 6 11 13 13 12 13 13 9 6 14
33 34 33 34 30 26 20 22 24 25 23 19 21 12 12 5 3 5 11 10 9 12 13 11 12 11 8
32 33 32 32 27 23 20 23 22 19 16 14 11 9 9 5 2 8 11 11 10 9 8 8 10 9 7
29 30 30 30 26 21 23 22 19 12 10 10 8 6 6 7 3 8 14 10 12 6 7 10 12 7 5
27 29 27 26 22 20 21 19 14 13 11 8 7 6 7 5 5 8 15 11 13 8 8 10 9 6 4
29 28 27 23 20 20 19 15 12 11 10 8 5 6 4 5 6 10 14 13 12 10 8 7 7 6 4
29 26 23 19 18 19 15 12 12 11 9 6 6 9 9 8 7 10 13 15 14 13 10 8 7 8 6
Wind_Direction
320 324 325 328 328 329 327 323 321 320 320 319 320 312 307 297 295 293 297 295 289 284 275 269 274 276 272
320 323 325 330 329 329 330 328 332 324 322 319 318 311 309 296 293 297 296 301 294 286 269 268 276 271 244
317 322 326 330 329 328 329 329 333 327 325 326 321 319 306 300 289 289 293 288 297 308 275 262 263 266 220
318 321 324 328 327 329 329 328 328 331 326 331 326 322 316 316 294 279 286 289 294 307 270 279 222 195 158
317 318 322 326 327 326 323 319 323 325 327 326 328 326 325 328 326 308 301 305 316 263 244 125 144 137 136
314 313 315 319 319 319 320 318 317 322 325 322 329 322 322 303 303 308 296 155 57 174 139 135 151 147 142
310 309 310 313 318 320 319 315 309 314 324 321 331 328 325 340 283 212 217 302 46 122 135 158 175 153 143
307 307 309 312 314 310 309 307 308 316 324 318 325 323 67 100 108 123 154 82 126 152 154 127 123 119 115
314 311 308 311 313 311 308 309 310 318 329 323 319 295 16 52 75 70 80 93 128 133 129 125 125 125 125
313 311 316 314 321 313 312 310 308 312 317 321 314 274 296 12 41 65 115 116 146 131 131 132 120 142 118
314 316 321 318 323 318 308 306 303 295 306 309 306 275 278 252 44 88 129 127 128 131 125 114 106 85 133
314 317 321 318 321 315 310 308 303 296 300 293 292 288 267 256 195 134 141 152 153 133 133 130 121 119 131
322 321 319 317 315 310 316 313 307 299 293 295 294 280 257 259 246 183 165 164 176 162 162 141 140 134 117
321 321 323 321 317 316 315 318 312 316 303 298 288 276 291 267 235 206 180 163 176 171 166 153 152 153 116
330 329 325 327 315 317 316 315 308 311 307 304 286 264 265 246 213 209 196 189 191 194 178 165 160 146 122
337 332 330 320 318 320 318 313 304 300 301 301 268 246 242 209 208 204 202 200 190 194 195 186 171 159 141
336 334 325 318 323 322 318 313 301 282 281 283 248 236 243 241 226 202 214 199 191 186 202 220 197 165 150
Height
1521 1518 1513 1506 1501 1497 1491 1485 1479 1475 1468 1463 1457 1452 1446 1441 1437 1432 1429 1424 1420 1419 1418 1419 1419 1420 1420
1515 1511 1506 1501 1495 1489 1483 1478 1474 1469 1465 1458 1451 1444 1439 1434 1430 1425 1421 1418 1414 1411 1410 1412 1412 1412 1412
1508 1505 1499 1495 1487 1483 1478 1472 1468 1464 1459 1452 1444 1438 1431 1423 1419 1418 1415 1413 1410 1406 1403 1403 1406 1408 1409
1504 1498 1494 1489 1484 1475 1467 1467 1460 1456 1450 1445 1439 1430 1422 1417 1413 1411 1409 1407 1406 1402 1398 1395 1397 1403 1407
1500 1494 1489 1484 1479 1475 1468 1460 1456 1452 1444 1439 1431 1424 1418 1413 1411 1409 1407 1404 1401 1399 1398 1399 1398 1402 1408
1497 1492 1487 1483 1477 1472 1467 1459 1449 1449 1440 1430 1428 1421 1416 1411 1409 1408 1405 1403 1402 1401 1401 1403 1404 1406 1411
1493 1489 1482 1480 1474 1467 1463 1459 1451 1443 1439 1429 1426 1420 1414 1408 1405 1406 1405 1405 1405 1406 1407 1408 1410 1412 1415
1488 1483 1480 1475 1472 1465 1459 1452 1446 1441 1437 1431 1426 1421 1414 1409 1407 1406 1407 1408 1408 1409 1410 1412 1413 1416 1419
1484 1481 1476 1471 1467 1461 1454 1448 1439 1437 1435 1430 1426 1423 1418 1414 1411 1410 1410 1410 1411 1411 1414 1416 1418 1420 1422
1475 1471 1468 1462 1458 1456 1450 1445 1440 1435 1434 1431 1427 1424 1422 1419 1417 1415 1414 1415 1416 1416 1418 1420 1422 1423 1424
1469 1464 1460 1458 1453 1448 1445 1441 1437 1433 1433 1430 1426 1424 1423 1421 1420 1419 1419 1418 1419 1420 1422 1424 1426 1427 1427
1463 1459 1455 1450 1446 1442 1439 1437 1434 1430 1428 1426 1423 1423 1423 1422 1421 1422 1422 1422 1423 1424 1426 1427 1428 1430 1431
1458 1454 1452 1447 1441 1438 1435 1433 1429 1426 1424 1423 1422 1422 1422 1422 1422 1423 1424 1425 1426 1427 1429 1430 1431 1432 1433
1455 1448 1445 1442 1436 1434 1430 1428 1425 1423 1422 1421 1421 1421 1421 1422 1422 1423 1425 1426 1428 1429 1430 1431 1433 1434 1434
1450 1444 1440 1436 1434 1431 1428 1425 1424 1422 1421 1420 1420 1420 1421 1421 1422 1423 1425 1427 1429 1430 1431 1433 1434 1435 1436
1446 1441 1436 1434 1431 1428 1425 1423 1422 1421 1420 1420 1419 1420 1420 1421 1422 1423 1425 1428 1430 1431 1432 1434 1435 1437 1438
1444 1437 1434 1431 1428 1426 1423 1422 1420 1420 1419 1419 1419 1420 1421 1421 1422 1423 1425 1427 1429 1432 1434 1435 1436 1438 1439